Regional Weather Roundup
Issued by NWS Sterling, VA

Home | Current Version | Previous Version | Graphics & Text | Print | Product List | Glossary On
Versions: 1 2 3 4 5 6 7 8 9 10 11 12 13 14 15 16 17 18 19 20 21 22 23 24 25 26 27 28 29 30 31 32 33 34 35 36 37 38 39 40 41 42 43 44 45 46 47 48 49 50
000
ASUS41 KLWX 270510
RWRLWX

REGIONAL WEATHER ROUNDUP
NATIONAL WEATHER SERVICE BALTIMORE MD/WASHINGTON DC
100 AM EDT FRI MAR 27 2015

Note: "FAIR" indicates few or no clouds below 12,000 feet
with no significant weather and/or obstructions to visibility.
 TC=TEMPERATURE CELSIUS

 * =Non NWS site. Station does not report precipitation (e.g. rain,
    snow, etc.), thunder, or fog.

DCZ001-MDZ009-015-VAZ040>042-051-053>054-270600-
WASHINGTON METRO

CITY           SKY/WX    TMP DP  RH WIND       PRES   REMARKS
WASHINGTON NAT LGT RAIN  52  44  74 N12       29.77R
DULLES         RAIN      48  42  80 NW12      29.77R
ANDREWS AFB    HVY RAIN  49  46  89 N12       29.75R
FT BELVOIR     LGT RAIN  49  44  85 VRB2      29.78R
QUANTICO       HVY RAIN  49  44  83 N9        29.79R
COLLEGE PARK*  CLOUDY    50  45  81 NW6       29.77R
LEESBURG*      LGT RAIN  48  45  87 NW8       29.79R
MANASSAS*      CLOUDY    46  45  93 N8        29.79R
GAITHERSBURG*  CLOUDY    46  39  76 NW6       29.81R

$$

MDZ006>007-011-014-270600-
BALTIMORE METRO

CITY           SKY/WX    TMP DP  RH WIND       PRES   REMARKS
BWI AIRPORT    LGT RAIN  49  41  74 VRB5      29.75R
MD SCIENCE CTR   N/A     50  40  68 MISG      29.75
MARTIN STATE   CLOUDY    48  43  81 NW9       29.77R
ANNAPOLIS      RAIN      48  42  80 NW12      29.76R

$$

MDZ012-015-019>023-270600-
MARYLAND EASTERN SHORE

CITY           SKY/WX    TMP DP  RH WIND       PRES   REMARKS
OCEAN CITY     CLOUDY    54  52  93 MISG      29.69R
SALISBURY      CLOUDY    59  57  93 W7        29.69R
BAY BRIDGE AP* LGT RAIN  45  45 100 NW10      29.76R
CAMBRIDGE*     CLOUDY    54  50  87 NW13G18   29.71R
EASTON*        RAIN      52  52 100 N9        29.77R

$$

MDZ017>025-270600-
SOUTHERN MARYLAND

CITY           SKY/WX    TMP DP  RH WIND       PRES   REMARKS
PATUXENT RIVER CLOUDY    53  49  86 NW12      29.72R
ST INIGOES     CLOUDY    57  48  72 VRB5      29.71R
LEONARDTOWN*   CLOUDY    52  50  93 NW8       29.75R

$$

MDZ003>005-270600-
NORTH CENTRAL MARYLAND

CITY           SKY/WX    TMP DP  RH WIND       PRES   REMARKS
FREDERICK*     CLOUDY    48  37  66 NW6       29.81R
HAGERSTOWN APT CLOUDY    46  37  71 NW16      29.78S
WESTMINSTER*   DRIZZLE   45  41  87 NW7       29.75S

$$

MDZ501>502-270600-
WESTERN MARYLAND

CITY           SKY/WX    TMP DP  RH WIND       PRES   REMARKS
OAKLAND*       FOG       34 N/A N/A NW8       29.77F VSB 1/4 WCI  27
CUMBERLAND*    CLOUDY    46  36  66 NW6       29.85S

$$

VAZ025>031-270600-
SHENANDOAH VALLEY

CITY           SKY/WX    TMP DP  RH WIND       PRES   REMARKS
WINCHESTER*    DRIZZLE   46  34  61 NW16      29.79R
FRONT ROYAL*   CLOUDY    46  37  71 CALM      29.78S
LURAY*         RAIN      50  41  71 N10       29.78R
NEW MARKET*    CLOUDY    47  40  75 NE5       29.79R
STAUNTON*      RAIN      48  43  83 N10       29.79R
WAYNESBORO*    CLOUDY    47  43  88 N9G18     29.76R

$$

WVZ021-048>050-054>055-270600-
EASTERN WEST VIRGINIA PANHANDLE

CITY           SKY/WX    TMP DP  RH WIND       PRES   REMARKS
MARTINSBURG    LGT RAIN  47  37  68 N10       29.80S
PETERSBURG*    LGT RAIN  47  35  62 NW7       29.84R

$$

VAZ036>039-050-270600-
CENTRAL FOOTHILLS

CITY           SKY/WX    TMP DP  RH WIND       PRES   REMARKS
CHARLOTTESVILL LGT RAIN  51  49  92 N5        29.72R
CULPEPER*      RAIN      48  46  93 NE7       29.77R
ORANGE*        RAIN      48  45  87 N12G20    29.76S
GORDONSVILLE*  CLOUDY    48  46  93 NE10G16   29.74R
WARRENTON*     RAIN      49  48  97 N8        29.77R

$$

VAZ055>057-270600-
NORTH AND CENTRAL PIEDMONT

CITY           SKY/WX    TMP DP  RH WIND       PRES   REMARKS
FREDERICKSBRG* RAIN      50  49  97 N6        29.78R
STAFFORD*      RAIN      47  32  55 N8        29.81R

$$

NCZ024-NYZ072-PAZ021-071-VAZ022-071-270600-
OTHER REGIONAL OBSERVATIONS

CITY           SKY/WX    TMP DP  RH WIND       PRES   REMARKS
NEW YORK CITY  LGT RAIN  43  40  89 VRB6      29.70R
PHILADELPHIA   LGT RAIN  47  42  83 NW16      29.72R
PITTSBURGH     CLOUDY    36  33  89 W5        29.87S
ROANOKE        RAIN      50  46  86 NW7       29.78R FOG
RICHMOND       CLOUDY    65  55  70 S6        29.68R
RALEIGH        CLOUDY    66  56  70 SW9       29.71F

$$

ANZ530>537-270600-
MARINE OBSERVATIONS

STATION/POSITION TIME  TEMP    WIND        PRES
                       AIR SEA DIR/SP/G
                 (UTC) (F)     (DEG/KT/KT) (MB)
THOMAS PT LIGHT  0500                        N/A
BALT KEY BRIDGE  0400   51     320/ 16/ 20 1006.8R
COVE POINT       0400   48     340/ 10/ 12 1006.1R
LEWISETTA        0400   62 50              1005.3R
SOLOMONS ISLAND  0400      44                N/A
PINEY POINT      0400           10/ 15/ 20   N/A

$$



USA.gov is the U.S. government's official web portal to all federal, state and local government web resources and services.